SCP
0 -0 -0 -0 -0 -0 -1 -1 -1 -1 -1 -1 -1 -1 -1 -1 -1 -0 -0 -0 -0 -0 -0 -0 -0 0 0 -0 0 0 0 0 0 0 0 0 0 0 0 0 0 0 0
-0 -0 -0 -0 -0 -0 -0 -1 -1 -1 -1 -1 -1 -1 -1 -1 -1 -1 -0 -0 -0 -0 -0 -0 -0 0 0 -0 -0 0 0 0 0 0 0 0 0 0 0 0 0 0 0
0 0 -0 -0 -0 -0 -0 -0 -0 -0 -0 -1 -1 -1 -1 -1 -1 -0 -0 -0 -0 -0 -0 -0 0 0 0 -0 0 0 0 0 0 0 0 0 0 0 0 0 0 0 0
0 0 0 -0 -0 -0 -0 -0 -0 -0 -0 -0 -0 -1 -1 -1 -1 -0 -0 -0 -0 -0 -0 0 0 0 0 0 0 0 0 0 0 0 0 0 0 0 0 0 0 0 0
1 0 0 0 -0 -0 -0 -0 -0 -0 -0 -0 -0 -0 -0 -0 -0 -0 -0 -0 -0 -0 -0 0 0 0 0 0 0 0 0 0 0 0 0 0 0 0 0 0 0 0 0
1 1 1 0 0 0 -0 -0 -0 -0 -0 -0 -0 -0 -0 -0 -0 -0 -0 -0 -0 -0 0 0 0 0 0 0 0 0 0 0 0 0 0 0 0 0 0 0 1 1 0
0 0 1 1 1 0 0 0 0 0 -0 0 0 0 0 0 0 0 0 0 0 0 0 0 0 0 0 0 0 0 0 0 0 0 0 0 0 0 0 1 1 1 0
0 1 1 1 1 1 1 0 0 0 0 0 0 0 0 0 0 0 0 0 0 0 0 0 0 0 0 0 0 0 0 0 0 0 0 0 0 0 1 1 0 1 1
1 0 1 1 1 1 1 1 1 0 0 0 0 0 0 0 0 0 0 0 0 0 0 0 0 0 0 0 0 0 0 0 0 0 0 0 0 1 1 1 1 1 1
1 1 1 1 1 1 1 1 1 1 1 0 0 0 0 0 0 0 0 0 0 0 0 0 0 0 0 0 0 0 0 0 0 0 0 0 0 1 1 1 0 1 0
1 1 1 1 1 1 1 1 1 1 1 1 1 1 0 0 0 0 0 0 0 0 0 0 0 0 0 0 0 0 0 0 0 0 0 0 1 1 1 0 0 0 0
1 1 1 1 1 1 1 2 2 2 2 1 1 1 1 0 0 0 0 0 0 0 0 0 0 0 0 0 0 0 0 0 0 0 0 0 1 0 0 0 0 0 0
2 1 1 1 1 1 1 2 2 2 2 1 1 1 0 0 0 0 0 0 0 0 0 0 0 0 0 0 0 0 0 0 0 0 0 1 0 0 0 0 0 0 0
1 1 2 2 1 1 2 2 2 1 1 1 1 1 0 0 0 0 0 0 0 0 0 0 0 0 0 0 0 0 0 0 0 0 0 0 0 0 0 0 0 0 0
0 0 1 2 2 2 1 2 2 1 1 1 1 1 0 0 0 0 0 0 0 0 0 0 0 0 0 0 0 0 0 0 0 0 0 0 0 0 0 0 0 0 0
0 0 1 2 2 2 2 2 1 1 1 1 1 1 0 0 0 0 0 0 0 0 0 0 0 0 0 0 0 0 0 0 0 0 0 0 0 0 0 0 0 0 0
0 0 0 2 2 1 1 2 1 1 1 1 1 1 0 0 0 0 0 0 0 0 0 0 0 0 0 0 0 0 0 0 0 0 0 0 0 0 0 0 0 0 0
0 0 0 0 3 2 1 1 2 1 1 1 1 1 1 1 0 0 0 0 0 0 0 0 0 0 0 0 0 0 0 0 0 0 0 0 0 0 0 0 0 0 0
0 0 0 0 3 3 2 2 1 0 1 1 0 0 0 0 0 0 0 0 0 0 0 0 0 0 0 0 0 0 0 0 0 0 0 0 0 0 0 0 0 0 0
0 0 0 0 1 3 4 2 2 1 1 0 0 0 0 0 0 0 0 0 0 0 0 0 0 0 0 0 0 0 0 0 0 0 0 0 0 0 0 0 0 0 0
0 0 0 0 0 2 4 3 2 3 2 1 1 1 0 0 0 0 0 0 0 0 0 0 0 0 0 0 0 0 0 0 0 0 0 0 0 0 0 0 0 0 0
0 0 0 0 0 1 3 3 3 2 1 1 1 0 1 1 0 0 0 0 0 0 0 0 0 0 0 0 0 0 0 0 0 0 0 0 0 0 0 0 0 0 0
0 0 0 0 0 0 2 3 3 2 2 1 1 0 0 -0 -0 0 0 0 0 0 0 0 0 0 0 0 0 0 0 0 0 0 0 0 0 0 0 0 0 0 0
0 0 0 0 0 0 1 2 2 2 1 0 0 0 -0 -0 -0 0 0 0 1 0 0 0 0 0 0 0 0 0 0 0 0 0 0 0 0 0 0 0 0 0 0
0 0 0 0 0 0 0 0 1 0 0 0 1 0 -0 -0 -0 0 0 0 0 0 0 0 0 0 0 0 0 0 0 0 0 0 0 0 0 0 0 0 0 0 0
0 0 0 0 0 0 0 0 0 0 0 0 0 0 0 -0 -0 -0 0 0 0 0 0 0 0 0 0 0 0 0 0 0 0 0 0 0 0 0 0 0 0 0 0
Wind_Speed_500mb
32 38 37 38 39 34 30 30 27 22 16 16 22 28 28 25 24 25 23 25 26 31 34 30 26 24 24 21 16 12 9 9 10 12 14 17 17 16 17 17 20 20 17
25 34 40 40 40 35 31 28 26 23 18 17 21 26 27 27 27 26 25 25 25 30 33 28 24 21 18 16 12 10 8 7 9 13 14 15 11 10 9 10 13 13 14
11 34 47 41 38 34 29 26 24 22 19 18 19 23 26 27 28 27 26 25 25 28 31 26 22 17 14 13 10 8 9 8 10 14 16 10 6 6 5 2 4 7 9
9 39 44 39 35 32 29 25 23 21 18 17 17 21 24 27 28 27 26 25 26 27 28 24 19 16 13 10 9 9 9 11 13 17 18 13 6 2 8 8 7 9 11
16 41 41 37 33 30 27 25 24 22 20 18 17 21 23 25 27 28 27 27 27 27 25 22 19 16 13 10 9 9 10 12 14 18 21 17 11 7 8 11 12 13 16
12 40 40 35 32 29 26 23 24 23 21 21 18 18 22 25 27 27 28 28 28 27 24 22 19 17 15 12 11 11 13 15 16 20 26 24 18 14 13 16 14 16 20
5 32 38 34 31 29 27 25 24 24 24 23 21 20 22 25 27 29 29 29 28 26 24 22 19 18 15 14 14 15 15 16 17 19 23 27 25 20 19 18 18 21 25
4 11 33 35 31 29 28 27 26 26 25 24 24 23 22 25 27 28 29 29 28 27 24 21 20 18 16 15 15 16 16 17 17 19 19 22 23 23 22 20 18 21 26
10 11 23 36 35 32 30 30 29 28 27 26 26 25 24 25 27 27 28 28 29 28 24 21 18 17 16 16 17 18 19 18 16 14 12 14 13 14 13 10 13 23 32
12 16 18 28 35 35 34 34 34 34 32 30 28 28 27 26 27 29 29 28 29 29 25 22 19 17 17 18 17 18 19 16 16 14 11 13 14 10 8 11 21 30 36
21 20 20 21 27 33 36 37 38 39 37 34 32 31 31 31 30 31 32 30 29 31 29 25 22 20 21 22 19 19 16 14 18 16 17 18 15 9 11 22 28 36 33
26 23 25 24 24 28 33 37 42 44 44 41 38 35 35 34 33 33 34 33 32 31 32 30 27 24 23 23 23 22 20 19 20 19 18 17 15 11 16 29 32 30 24
22 27 32 33 32 30 31 31 38 45 47 47 44 41 39 38 36 37 37 38 36 34 35 33 29 25 25 26 28 25 23 19 20 22 19 17 13 20 24 32 27 23 21
27 29 35 43 39 35 36 35 38 42 46 51 50 46 43 41 38 39 40 38 39 37 35 33 30 27 28 29 29 27 25 21 17 14 16 17 18 24 24 23 25 19 20
44 39 35 38 44 40 39 39 40 42 46 44 46 47 46 44 41 40 39 39 41 39 37 33 32 30 29 28 29 30 30 25 21 18 21 21 26 23 22 25 20 19 23
54 47 39 40 41 47 46 41 40 39 35 35 42 47 49 47 43 42 41 41 41 40 37 35 35 34 35 33 32 28 29 27 28 27 26 26 25 22 26 22 23 20 26
54 51 46 48 44 46 50 47 39 33 27 30 33 38 45 42 45 43 45 45 40 36 33 33 35 36 37 33 33 30 28 29 31 28 25 32 27 25 23 23 19 24 29
53 53 53 52 47 49 54 48 45 36 26 25 27 33 45 50 51 48 48 49 44 40 36 34 31 31 30 34 34 33 30 34 33 30 35 35 28 28 20 22 21 25 30
56 58 58 63 54 45 49 50 49 48 41 32 31 33 37 44 50 53 49 46 46 45 42 40 36 34 34 35 36 32 32 34 35 35 37 34 28 25 22 23 23 28 32
68 60 60 63 61 51 46 50 48 47 46 46 39 35 32 36 41 46 54 49 44 49 49 45 45 40 36 32 31 33 37 37 34 32 31 31 29 29 27 29 29 33 33
61 68 63 65 69 60 53 51 53 55 55 49 42 38 37 38 39 46 50 50 53 52 53 49 49 47 45 41 40 37 35 31 29 35 36 31 35 34 35 35 34 35 38
45 56 63 59 68 66 57 52 48 52 48 49 38 35 29 35 40 44 52 52 53 61 56 59 51 52 50 49 47 38 29 24 22 29 33 34 34 34 33 36 35 37 36
37 37 52 43 49 68 60 54 51 40 45 42 22 13 21 31 39 37 38 53 54 54 62 60 59 55 55 52 50 42 19 20 23 22 26 30 29 31 34 37 32 28 28
47 29 26 38 44 57 64 65 46 38 28 28 17 15 20 34 31 35 38 44 47 55 65 63 66 62 52 59 46 52 44 42 25 19 18 26 29 30 31 30 26 24 26
62 35 15 22 31 30 39 55 42 24 24 26 12 11 25 31 31 36 35 44 45 47 57 66 64 53 64 59 52 53 44 43 32 17 15 25 26 29 29 28 23 25 32
83 57 34 17 17 28 37 37 36 25 26 27 14 17 29 31 34 37 42 43 46 50 56 59 62 67 68 65 46 41 43 41 40 32 28 31 32 28 29 26 25 30 33
Wind_Direction_500mb
192 187 182 182 182 189 197 195 195 196 195 191 187 186 186 183 175 165 162 165 167 168 164 162 158 155 156 159 159 156 151 153 148 146 138 124 111 102 88 76 59 46 36
215 209 190 187 186 188 196 197 195 197 198 193 185 185 186 184 177 173 172 173 175 171 170 166 161 158 164 174 176 170 167 175 159 160 152 139 122 110 99 81 51 39 27
238 201 189 190 190 187 193 199 198 198 198 192 188 188 188 187 182 181 178 178 178 176 175 171 165 159 155 165 178 192 202 196 181 179 171 158 157 181 176 118 34 4 356
206 187 188 189 194 191 193 198 199 198 198 194 188 189 189 188 187 185 182 183 183 183 183 181 181 176 167 171 193 204 208 208 202 197 195 202 188 232 229 227 254 303 319
193 192 191 190 196 197 196 200 201 199 200 198 192 192 192 193 193 190 188 188 189 190 191 193 200 201 193 193 208 210 214 222 219 212 209 214 229 262 244 249 245 281 305
181 194 197 196 199 203 205 207 206 205 207 210 206 200 200 198 198 199 197 196 197 198 200 204 209 209 204 209 214 224 223 227 226 223 219 224 236 246 271 255 259 278 294
167 201 204 204 206 209 211 213 214 214 213 216 216 214 210 205 205 207 205 205 205 205 206 210 210 207 214 217 222 231 230 235 238 237 235 234 238 247 270 257 256 274 291
263 209 211 212 214 219 221 222 223 222 221 222 222 223 221 216 214 214 213 211 210 209 210 213 211 214 219 219 224 233 237 237 241 245 246 243 246 253 262 264 266 288 299
240 240 218 217 220 223 228 230 231 230 229 231 231 229 230 228 224 221 220 218 215 214 215 214 212 212 218 223 227 236 243 242 234 243 253 240 237 255 271 282 308 307 303
239 238 233 226 229 234 237 236 235 235 233 233 235 235 235 233 231 230 228 225 223 221 221 217 217 218 224 233 235 241 242 238 230 240 245 245 254 258 259 319 307 306 307
267 250 234 232 235 240 244 245 242 236 234 234 236 238 239 239 237 236 235 233 230 227 227 225 228 228 229 238 238 238 238 233 236 251 251 267 249 246 300 302 306 307 308
256 252 244 243 245 251 246 246 244 241 240 239 239 242 244 244 244 243 241 240 238 235 234 232 234 235 235 240 242 241 247 251 254 259 268 261 233 254 297 297 304 308 311
270 258 259 257 256 250 252 259 253 247 245 242 242 242 244 247 248 249 246 244 244 241 239 239 241 245 243 240 241 241 252 259 264 264 259 239 251 293 302 301 304 310 318
278 271 270 258 255 253 255 254 255 252 252 250 245 247 249 253 254 257 255 252 249 247 247 245 245 248 245 242 236 242 252 263 269 266 255 242 287 299 296 300 307 308 324
290 282 271 251 250 257 259 256 254 253 257 259 251 250 253 257 259 261 262 258 255 253 250 248 244 245 241 234 235 252 253 260 262 278 261 276 296 292 293 305 304 310 319
290 281 272 242 249 254 258 254 260 260 260 256 250 254 258 260 264 264 262 261 260 259 254 248 243 242 234 236 239 250 259 256 259 270 263 280 282 284 293 297 307 308 312
288 280 265 268 246 246 248 248 255 254 256 261 259 257 265 264 266 264 263 262 260 257 249 245 243 241 238 235 241 247 254 259 265 264 266 270 275 284 287 300 302 305 310
289 283 256 263 266 253 242 245 247 245 254 266 272 272 271 271 265 266 264 260 257 249 242 241 238 239 245 249 250 253 263 268 261 254 261 262 260 276 282 298 290 293 296
282 283 277 256 259 262 239 238 244 250 253 261 271 273 275 284 280 267 264 264 257 247 242 241 243 250 254 257 261 256 264 266 262 258 260 269 262 273 281 274 276 278 284
281 276 273 259 253 248 237 239 244 252 257 256 259 277 284 285 294 286 273 264 257 252 238 240 243 248 259 253 253 261 273 271 256 252 249 252 249 262 263 266 265 272 276
269 264 262 256 249 240 237 236 234 242 248 251 259 275 275 285 292 285 284 273 256 251 242 237 246 251 254 249 250 262 254 257 247 265 256 240 260 258 261 257 260 263 265
291 281 254 252 244 238 241 236 239 243 245 253 248 259 272 285 285 280 277 273 267 256 247 241 247 248 249 245 250 245 238 249 247 251 261 252 252 248 253 256 259 260 265
318 292 245 243 241 243 240 238 238 242 241 249 243 289 295 287 283 275 265 264 269 264 258 241 242 242 243 245 244 242 245 246 237 226 229 239 237 243 254 257 254 255 264
354 327 256 242 251 243 238 237 232 247 266 250 255 287 325 310 288 272 259 257 265 266 255 253 244 242 237 242 241 250 251 252 237 220 221 223 232 241 246 244 246 257 273
13 6 311 263 260 249 230 244 244 248 248 241 246 315 320 310 306 279 265 257 259 255 253 246 250 244 230 234 238 247 254 247 240 234 221 220 219 231 235 240 252 270 284
20 30 22 25 282 245 226 209 226 243 244 246 237 273 303 314 313 310 278 258 256 257 258 256 252 242 239 233 234 244 252 242 261 253 230 219 223 235 238 245 263 279 291
Wind_Speed_850mb
32 38 37 38 39 34 30 30 27 22 16 16 22 28 28 25 24 25 23 25 26 31 34 30 26 24 24 21 16 12 9 9 10 12 14 17 17 16 17 17 20 20 17
25 34 40 40 40 35 31 28 26 23 18 17 21 26 27 27 27 26 25 25 25 30 33 28 24 21 18 16 12 10 8 7 9 13 14 15 11 10 9 10 13 13 14
11 34 47 41 38 34 29 26 24 22 19 18 19 23 26 27 28 27 26 25 25 28 31 26 22 17 14 13 10 8 9 8 10 14 16 10 6 6 5 2 4 7 9
9 39 44 39 35 32 29 25 23 21 18 17 17 21 24 27 28 27 26 25 26 27 28 24 19 16 13 10 9 9 9 11 13 17 18 13 6 2 8 8 7 9 11
16 41 41 37 33 30 27 25 24 22 20 18 17 21 23 25 27 28 27 27 27 27 25 22 19 16 13 10 9 9 10 12 14 18 21 17 11 7 8 11 12 13 16
12 40 40 35 32 29 26 23 24 23 21 21 18 18 22 25 27 27 28 28 28 27 24 22 19 17 15 12 11 11 13 15 16 20 26 24 18 14 13 16 14 16 20
5 32 38 34 31 29 27 25 24 24 24 23 21 20 22 25 27 29 29 29 28 26 24 22 19 18 15 14 14 15 15 16 17 19 23 27 25 20 19 18 18 21 25
4 11 33 35 31 29 28 27 26 26 25 24 24 23 22 25 27 28 29 29 28 27 24 21 20 18 16 15 15 16 16 17 17 19 19 22 23 23 22 20 18 21 26
10 11 23 36 35 32 30 30 29 28 27 26 26 25 24 25 27 27 28 28 29 28 24 21 18 17 16 16 17 18 19 18 16 14 12 14 13 14 13 10 13 23 32
12 16 18 28 35 35 34 34 34 34 32 30 28 28 27 26 27 29 29 28 29 29 25 22 19 17 17 18 17 18 19 16 16 14 11 13 14 10 8 11 21 30 36
21 20 20 21 27 33 36 37 38 39 37 34 32 31 31 31 30 31 32 30 29 31 29 25 22 20 21 22 19 19 16 14 18 16 17 18 15 9 11 22 28 36 33
26 23 25 24 24 28 33 37 42 44 44 41 38 35 35 34 33 33 34 33 32 31 32 30 27 24 23 23 23 22 20 19 20 19 18 17 15 11 16 29 32 30 24
22 27 32 33 32 30 31 31 38 45 47 47 44 41 39 38 36 37 37 38 36 34 35 33 29 25 25 26 28 25 23 19 20 22 19 17 13 20 24 32 27 23 21
27 29 35 43 39 35 36 35 38 42 46 51 50 46 43 41 38 39 40 38 39 37 35 33 30 27 28 29 29 27 25 21 17 14 16 17 18 24 24 23 25 19 20
44 39 35 38 44 40 39 39 40 42 46 44 46 47 46 44 41 40 39 39 41 39 37 33 32 30 29 28 29 30 30 25 21 18 21 21 26 23 22 25 20 19 23
54 47 39 40 41 47 46 41 40 39 35 35 42 47 49 47 43 42 41 41 41 40 37 35 35 34 35 33 32 28 29 27 28 27 26 26 25 22 26 22 23 20 26
54 51 46 48 44 46 50 47 39 33 27 30 33 38 45 42 45 43 45 45 40 36 33 33 35 36 37 33 33 30 28 29 31 28 25 32 27 25 23 23 19 24 29
53 53 53 52 47 49 54 48 45 36 26 25 27 33 45 50 51 48 48 49 44 40 36 34 31 31 30 34 34 33 30 34 33 30 35 35 28 28 20 22 21 25 30
56 58 58 63 54 45 49 50 49 48 41 32 31 33 37 44 50 53 49 46 46 45 42 40 36 34 34 35 36 32 32 34 35 35 37 34 28 25 22 23 23 28 32
68 60 60 63 61 51 46 50 48 47 46 46 39 35 32 36 41 46 54 49 44 49 49 45 45 40 36 32 31 33 37 37 34 32 31 31 29 29 27 29 29 33 33
61 68 63 65 69 60 53 51 53 55 55 49 42 38 37 38 39 46 50 50 53 52 53 49 49 47 45 41 40 37 35 31 29 35 36 31 35 34 35 35 34 35 38
45 56 63 59 68 66 57 52 48 52 48 49 38 35 29 35 40 44 52 52 53 61 56 59 51 52 50 49 47 38 29 24 22 29 33 34 34 34 33 36 35 37 36
37 37 52 43 49 68 60 54 51 40 45 42 22 13 21 31 39 37 38 53 54 54 62 60 59 55 55 52 50 42 19 20 23 22 26 30 29 31 34 37 32 28 28
47 29 26 38 44 57 64 65 46 38 28 28 17 15 20 34 31 35 38 44 47 55 65 63 66 62 52 59 46 52 44 42 25 19 18 26 29 30 31 30 26 24 26
62 35 15 22 31 30 39 55 42 24 24 26 12 11 25 31 31 36 35 44 45 47 57 66 64 53 64 59 52 53 44 43 32 17 15 25 26 29 29 28 23 25 32
83 57 34 17 17 28 37 37 36 25 26 27 14 17 29 31 34 37 42 43 46 50 56 59 62 67 68 65 46 41 43 41 40 32 28 31 32 28 29 26 25 30 33
Wind_Direction_850mb
192 187 182 182 182 189 197 195 195 196 195 191 187 186 186 183 175 165 162 165 167 168 164 162 158 155 156 159 159 156 151 153 148 146 138 124 111 102 88 76 59 46 36
215 209 190 187 186 188 196 197 195 197 198 193 185 185 186 184 177 173 172 173 175 171 170 166 161 158 164 174 176 170 167 175 159 160 152 139 122 110 99 81 51 39 27
238 201 189 190 190 187 193 199 198 198 198 192 188 188 188 187 182 181 178 178 178 176 175 171 165 159 155 165 178 192 202 196 181 179 171 158 157 181 176 118 34 4 356
206 187 188 189 194 191 193 198 199 198 198 194 188 189 189 188 187 185 182 183 183 183 183 181 181 176 167 171 193 204 208 208 202 197 195 202 188 232 229 227 254 303 319
193 192 191 190 196 197 196 200 201 199 200 198 192 192 192 193 193 190 188 188 189 190 191 193 200 201 193 193 208 210 214 222 219 212 209 214 229 262 244 249 245 281 305
181 194 197 196 199 203 205 207 206 205 207 210 206 200 200 198 198 199 197 196 197 198 200 204 209 209 204 209 214 224 223 227 226 223 219 224 236 246 271 255 259 278 294
167 201 204 204 206 209 211 213 214 214 213 216 216 214 210 205 205 207 205 205 205 205 206 210 210 207 214 217 222 231 230 235 238 237 235 234 238 247 270 257 256 274 291
263 209 211 212 214 219 221 222 223 222 221 222 222 223 221 216 214 214 213 211 210 209 210 213 211 214 219 219 224 233 237 237 241 245 246 243 246 253 262 264 266 288 299
240 240 218 217 220 223 228 230 231 230 229 231 231 229 230 228 224 221 220 218 215 214 215 214 212 212 218 223 227 236 243 242 234 243 253 240 237 255 271 282 308 307 303
239 238 233 226 229 234 237 236 235 235 233 233 235 235 235 233 231 230 228 225 223 221 221 217 217 218 224 233 235 241 242 238 230 240 245 245 254 258 259 319 307 306 307
267 250 234 232 235 240 244 245 242 236 234 234 236 238 239 239 237 236 235 233 230 227 227 225 228 228 229 238 238 238 238 233 236 251 251 267 249 246 300 302 306 307 308
256 252 244 243 245 251 246 246 244 241 240 239 239 242 244 244 244 243 241 240 238 235 234 232 234 235 235 240 242 241 247 251 254 259 268 261 233 254 297 297 304 308 311
270 258 259 257 256 250 252 259 253 247 245 242 242 242 244 247 248 249 246 244 244 241 239 239 241 245 243 240 241 241 252 259 264 264 259 239 251 293 302 301 304 310 318
278 271 270 258 255 253 255 254 255 252 252 250 245 247 249 253 254 257 255 252 249 247 247 245 245 248 245 242 236 242 252 263 269 266 255 242 287 299 296 300 307 308 324
290 282 271 251 250 257 259 256 254 253 257 259 251 250 253 257 259 261 262 258 255 253 250 248 244 245 241 234 235 252 253 260 262 278 261 276 296 292 293 305 304 310 319
290 281 272 242 249 254 258 254 260 260 260 256 250 254 258 260 264 264 262 261 260 259 254 248 243 242 234 236 239 250 259 256 259 270 263 280 282 284 293 297 307 308 312
288 280 265 268 246 246 248 248 255 254 256 261 259 257 265 264 266 264 263 262 260 257 249 245 243 241 238 235 241 247 254 259 265 264 266 270 275 284 287 300 302 305 310
289 283 256 263 266 253 242 245 247 245 254 266 272 272 271 271 265 266 264 260 257 249 242 241 238 239 245 249 250 253 263 268 261 254 261 262 260 276 282 298 290 293 296
282 283 277 256 259 262 239 238 244 250 253 261 271 273 275 284 280 267 264 264 257 247 242 241 243 250 254 257 261 256 264 266 262 258 260 269 262 273 281 274 276 278 284
281 276 273 259 253 248 237 239 244 252 257 256 259 277 284 285 294 286 273 264 257 252 238 240 243 248 259 253 253 261 273 271 256 252 249 252 249 262 263 266 265 272 276
269 264 262 256 249 240 237 236 234 242 248 251 259 275 275 285 292 285 284 273 256 251 242 237 246 251 254 249 250 262 254 257 247 265 256 240 260 258 261 257 260 263 265
291 281 254 252 244 238 241 236 239 243 245 253 248 259 272 285 285 280 277 273 267 256 247 241 247 248 249 245 250 245 238 249 247 251 261 252 252 248 253 256 259 260 265
318 292 245 243 241 243 240 238 238 242 241 249 243 289 295 287 283 275 265 264 269 264 258 241 242 242 243 245 244 242 245 246 237 226 229 239 237 243 254 257 254 255 264
354 327 256 242 251 243 238 237 232 247 266 250 255 287 325 310 288 272 259 257 265 266 255 253 244 242 237 242 241 250 251 252 237 220 221 223 232 241 246 244 246 257 273
13 6 311 263 260 249 230 244 244 248 248 241 246 315 320 310 306 279 265 257 259 255 253 246 250 244 230 234 238 247 254 247 240 234 221 220 219 231 235 240 252 270 284
20 30 22 25 282 245 226 209 226 243 244 246 237 273 303 314 313 310 278 258 256 257 258 256 252 242 239 233 234 244 252 242 261 253 230 219 223 235 238 245 263 279 291